Location: Houhaj�rvi
(61.2833°N, 23.0000°E)
Time: 10:54:05
(UTC+00:00)

Cosmos 2369 Rocket - Pass Details

Date: 27 February 2020
Orbit: 827 x 854 km, 71.0° (Epoch: 08 April)

Event Time Altitude Azimuth Distance (km) Brightness Sun altitude
Rises 22:29:29 0° 306° (NW) 3,428 5.8 -36.9°
Reaches altitude 10° 22:32:06 10° 314° (NW) 2,494 5.1 -37.0°
Enters shadow 22:35:55 34° 348° (NNW) 1,396 3.7 -37.0°
